| time (UTC) | temp F | wind direction | speed MPH | gust MPH | rain 1hr in | rain 24hr in | rain mn in | humidity % | barometer mb |
| 20260506133842 | 46 | 304 | 5.0 | 8.0 | 0.00 | 1.25 | 0.43 | 79 | 1009.7 |
| 20260506132816 | 46 | 330 | 2.0 | 5.0 | 0.00 | 1.25 | 0.43 | 80 | 1009.9 |
| 20260506131835 | 46 | 328 | 4.0 | 10.0 | 0.00 | 1.25 | 0.43 | 80 | 1009.8 |
| 20260506130825 | 45 | 333 | 2.0 | 6.0 | 0.00 | 1.25 | 0.43 | 81 | 1009.4 |
| 20260506125826 | 45 | 328 | 2.0 | 5.0 | 0.00 | 1.25 | 0.43 | 81 | 1009.3 |
| 20260506124828 | 45 | 338 | 3.0 | 8.0 | 0.00 | 1.25 | 0.43 | 81 | 1009.2 |
| 20260506123845 | 45 | 330 | 4.0 | 10.0 | 0.00 | 1.25 | 0.43 | 82 | 1009.3 |
| 20260506122842 | 44 | 325 | 4.0 | 10.0 | 0.00 | 1.25 | 0.43 | 82 | 1009.4 |
| 20260506121833 | 44 | 333 | 3.0 | 6.0 | 0.00 | 1.25 | 0.43 | 83 | 1009.2 |
| 20260506120824 | 44 | 326 | 2.0 | 8.0 | 0.00 | 1.25 | 0.43 | 83 | 1008.8 |
| 20260506115828 | 44 | 326 | 2.0 | 6.0 | 0.00 | 1.25 | 0.43 | 83 | 1008.7 |
| 20260506114831 | 43 | 325 | 2.0 | 4.0 | 0.00 | 1.25 | 0.43 | 84 | 1008.7 |
| 20260506113824 | 43 | 325 | 1.0 | 4.0 | 0.00 | 1.25 | 0.43 | 83 | 1008.5 |
| 20260506112816 | 43 | 325 | 2.0 | 8.0 | 0.00 | 1.25 | 0.43 | 84 | 1008.3 |
| 20260506111835 | 43 | 324 | 3.0 | 6.0 | 0.00 | 1.25 | 0.43 | 84 | 1008.0 |
| 20260506110830 | 43 | 318 | 1.0 | 5.0 | 0.00 | 1.25 | 0.43 | 84 | 1007.7 |
| 20260506105832 | 43 | 315 | 2.0 | 6.0 | 0.00 | 1.28 | 0.43 | 84 | 1007.5 |
| 20260506104835 | 43 | 317 | 3.0 | 8.0 | 0.00 | 1.28 | 0.43 | 83 | 1007.5 |
| 20260506103826 | 43 | 328 | 2.0 | 8.0 | 0.00 | 1.28 | 0.43 | 84 | 1007.2 |
| 20260506102847 | 43 | 327 | 4.0 | 8.0 | 0.01 | 1.28 | 0.43 | 84 | 1007.1 |
| 20260506101847 | 43 | 319 | 2.0 | 9.0 | 0.01 | 1.28 | 0.43 | 84 | 1007.0 |
| 20260506100817 | 43 | 346 | 3.0 | 9.0 | 0.01 | 1.28 | 0.43 | 84 | 1006.7 |
| 20260506095842 | 43 | 336 | 1.0 | 3.0 | 0.01 | 1.29 | 0.43 | 85 | 1006.6 |
| 20260506094845 | 43 | 336 | 1.0 | 4.0 | 0.01 | 1.29 | 0.43 | 85 | 1006.4 |
| 20260506093902 | 43 | 342 | 2.0 | 6.0 | 0.01 | 1.29 | 0.43 | 85 | 1006.7 |
| 20260506092831 | 43 | 342 | 2.0 | 8.0 | 0.01 | 1.28 | 0.42 | 85 | 1006.6 |
| 20260506091824 | 43 | 346 | 2.0 | 8.0 | 0.02 | 1.28 | 0.42 | 85 | 1006.4 |
| 20260506090841 | 44 | 355 | 4.0 | 9.0 | 0.03 | 1.28 | 0.42 | 85 | 1006.5 |
| 20260506085843 | 44 | 333 | 3.0 | 8.0 | 0.05 | 1.28 | 0.42 | 85 | 1006.2 |
| 20260506084847 | 44 | 311 | 5.0 | 10.0 | 0.06 | 1.28 | 0.42 | 85 | 1006.0 |
| 20260506083839 | 44 | 311 | 6.0 | 15.0 | 0.08 | 1.28 | 0.42 | 85 | 1006.2 |
| 20260506082830 | 44 | 328 | 6.0 | 12.0 | 0.08 | 1.27 | 0.41 | 85 | 1005.9 |
| 20260506081909 | 45 | 306 | 5.0 | 13.0 | 0.09 | 1.26 | 0.40 | 85 | 1005.7 |
| 20260506080839 | 45 | 332 | 6.0 | 13.0 | 0.10 | 1.25 | 0.39 | 85 | 1005.3 |
| 20260506072833 | 46 | 5 | 4.0 | 10.0 | 0.12 | 1.19 | 0.33 | 85 | 1005.4 |
| 20260506071824 | 47 | 293 | 4.0 | 13.0 | 0.12 | 1.17 | 0.31 | 85 | 1004.9 |
| 20260506070814 | 47 | 16 | 4.0 | 13.0 | 0.11 | 1.15 | 0.29 | 85 | 1005.3 |
| 20260506061833 | 49 | 336 | 4.0 | 9.0 | 0.09 | 1.05 | 0.19 | 85 | 1004.4 |
| 20260506060823 | 49 | 25 | 4.0 | 10.0 | 0.10 | 1.04 | 0.18 | 85 | 1004.6 |
| 20260506050828 | 57 | 173 | 1.0 | 6.0 | 0.07 | 0.94 | 0.08 | 85 | 1004.3 |
| 20260506044829 | 57 | 161 | 4.0 | 14.0 | 0.07 | 0.92 | 0.06 | 85 | 1004.1 |
| 20260506043826 | 57 | 190 | 4.0 | 13.0 | 0.07 | 0.91 | 0.05 | 85 | 1004.1 |
| 20260506042845 | 57 | 178 | 6.0 | 12.0 | 0.06 | 0.89 | 0.03 | 85 | 1004.1 |
| 20260506041839 | 57 | 193 | 3.0 | 11.0 | 0.06 | 0.88 | 0.02 | 85 | 1004.1 |
| 20260506040833 | 57 | 185 | 3.0 | 14.0 | 0.07 | 0.87 | 0.01 | 85 | 1003.8 |
| 20260506035817 | 58 | 175 | 3.0 | 6.0 | 0.07 | 0.86 | 0.86 | 85 | 1004.2 |
| 20260506034841 | 58 | 184 | 2.0 | 4.0 | 0.08 | 0.85 | 0.85 | 85 | 1004.2 |
| 20260506033833 | 58 | 194 | 0.0 | 2.0 | 0.08 | 0.84 | 0.84 | 85 | 1004.3 |
| 20260506032825 | 58 | 194 | 0.0 | 1.0 | 0.09 | 0.83 | 0.83 | 85 | 1004.4 |
| 20260506031845 | 58 | 194 | 0.0 | 0.0 | 0.10 | 0.82 | 0.82 | 85 | 1004.5 |
| 20260506030837 | 58 | 194 | 0.0 | 0.0 | 0.10 | 0.80 | 0.80 | 85 | 1004.8 |
| 20260506025840 | 58 | 194 | 0.0 | 1.0 | 0.11 | 0.79 | 0.79 | 85 | 1004.9 |
| 20260506024823 | 58 | 194 | 0.0 | 2.0 | 0.10 | 0.77 | 0.77 | 85 | 1005.0 |
| 20260506023840 | 58 | 194 | 0.0 | 3.0 | 0.10 | 0.76 | 0.76 | 85 | 1004.4 |
| 20260506022833 | 58 | 194 | 0.0 | 3.0 | 0.08 | 0.74 | 0.74 | 85 | 1005.1 |
| 20260506021852 | 58 | 194 | 0.0 | 1.0 | 0.08 | 0.72 | 0.72 | 85 | 1005.5 |
| 20260506020851 | 58 | 194 | 1.0 | 2.0 | 0.07 | 0.70 | 0.70 | 85 | 1005.4 |
| 20260506015833 | 58 | 194 | 0.0 | 2.0 | 0.05 | 0.68 | 0.68 | 84 | 1005.1 |
| 20260506014857 | 58 | 194 | 1.0 | 2.0 | 0.03 | 0.66 | 0.66 | 84 | 1005.0 |
| 20260506013827 | 58 | 194 | 0.0 | 0.0 | 0.03 | 0.66 | 0.66 | 84 | 1005.3 |
| 20260506012845 | 58 | 194 | 0.0 | 3.0 | 0.03 | 0.66 | 0.66 | 85 | 1005.1 |
| 20260506011843 | 59 | 248 | 0.0 | 0.0 | 0.01 | 0.64 | 0.64 | 85 | 1005.0 |
| 20260506010902 | 59 | 248 | 0.0 | 3.0 | 0.00 | 0.63 | 0.63 | 84 | 1005.3 |
| 20260506005827 | 59 | 187 | 1.0 | 2.0 | 0.00 | 0.63 | 0.63 | 84 | 1005.0 |
| 20260506004830 | 59 | 186 | 0.0 | 3.0 | 0.01 | 0.63 | 0.63 | 84 | 1004.6 |
| 20260506003909 | 59 | 186 | 0.0 | 5.0 | 0.01 | 0.63 | 0.63 | 84 | 1004.4 |
| 20260506002840 | 59 | 177 | 2.0 | 5.0 | 0.01 | 0.63 | 0.63 | 84 | 1004.5 |
| 20260506001831 | 59 | 184 | 2.0 | 6.0 | 0.01 | 0.63 | 0.63 | 85 | 1004.5 |
| 20260506000825 | 59 | 180 | 4.0 | 5.0 | 0.01 | 0.63 | 0.63 | 85 | 1004.6 |
| 20260505235828 | 59 | 188 | 1.0 | 4.0 | 0.02 | 0.63 | 0.63 | 85 | 1004.6 |
| 20260505234830 | 59 | 188 | 1.0 | 4.0 | 0.02 | 0.62 | 0.62 | 84 | 1004.4 |
| 20260505233851 | 59 | 188 | 1.0 | 5.0 | 0.02 | 0.62 | 0.62 | 84 | 1004.7 |
| 20260505232823 | 59 | 188 | 0.0 | 2.0 | 0.03 | 0.62 | 0.62 | 84 | 1004.7 |
| 20260505231816 | 59 | 188 | 0.0 | 3.0 | 0.04 | 0.62 | 0.62 | 84 | 1004.8 |
| 20260505230831 | 59 | 188 | 0.0 | 3.0 | 0.06 | 0.62 | 0.62 | 84 | 1004.9 |
| 20260505225902 | 59 | 188 | 2.0 | 5.0 | 0.06 | 0.61 | 0.61 | 84 | 1005.2 |
| 20260505224824 | 59 | 201 | 1.0 | 4.0 | 0.07 | 0.60 | 0.60 | 84 | 1005.2 |
| 20260505223845 | 59 | 192 | 2.0 | 7.0 | 0.09 | 0.60 | 0.60 | 84 | 1005.3 |
| 20260505222835 | 60 | 188 | 2.0 | 6.0 | 0.10 | 0.59 | 0.59 | 84 | 1005.4 |
| 20260505221831 | 60 | 180 | 2.0 | 6.0 | 0.11 | 0.58 | 0.58 | 84 | 1005.6 |
| 20260505220822 | 60 | 173 | 1.0 | 5.0 | 0.12 | 0.56 | 0.56 | 84 | 1005.5 |
| 20260505215826 | 59 | 163 | 4.0 | 8.0 | 0.13 | 0.55 | 0.55 | 84 | 1005.8 |
| 20260505214847 | 60 | 163 | 4.0 | 6.0 | 0.14 | 0.53 | 0.53 | 84 | 1005.9 |
| 20260505213839 | 59 | 186 | 2.0 | 7.0 | 0.15 | 0.51 | 0.51 | 84 | 1006.0 |
| 20260505212829 | 59 | 186 | 4.0 | 8.0 | 0.16 | 0.49 | 0.49 | 84 | 1006.1 |
| 20260505211847 | 59 | 181 | 4.0 | 9.0 | 0.17 | 0.47 | 0.47 | 84 | 1006.2 |
| 20260505210839 | 59 | 159 | 4.0 | 6.0 | 0.18 | 0.44 | 0.44 | 84 | 1006.2 |
| 20260505205823 | 59 | 173 | 2.0 | 7.0 | 0.19 | 0.42 | 0.42 | 84 | 1006.4 |
| 20260505204823 | 59 | 178 | 3.0 | 7.0 | 0.20 | 0.39 | 0.39 | 84 | 1006.4 |
| 20260505203901 | 59 | 177 | 2.0 | 7.0 | 0.21 | 0.36 | 0.36 | 84 | 1006.4 |
| 20260505202833 | 59 | 180 | 2.0 | 12.0 | 0.23 | 0.33 | 0.33 | 83 | 1006.5 |
| 20260505201849 | 60 | 132 | 2.0 | 8.0 | 0.25 | 0.30 | 0.30 | 83 | 1006.7 |
| 20260505200838 | 60 | 177 | 3.0 | 8.0 | 0.21 | 0.26 | 0.26 | 83 | 1006.6 |
| 20260505195843 | 60 | 159 | 2.0 | 7.0 | 0.17 | 0.22 | 0.22 | 82 | 1006.7 |
| 20260505194846 | 60 | 190 | 3.0 | 6.0 | 0.14 | 0.19 | 0.19 | 81 | 1006.8 |
| 20260505193837 | 61 | 182 | 1.0 | 12.0 | 0.10 | 0.15 | 0.15 | 80 | 1006.7 |
| 20260505192836 | 63 | 161 | 1.0 | 6.0 | 0.05 | 0.10 | 0.10 | 78 | 1007.0 |
| 20260505191828 | 66 | 248 | 4.0 | 9.0 | 0.00 | 0.05 | 0.05 | 74 | 1006.8 |
| 20260505190821 | 67 | 156 | 4.0 | 9.0 | 0.00 | 0.05 | 0.05 | 71 | 1006.4 |
| 20260505185827 | 67 | 180 | 5.0 | 11.0 | 0.00 | 0.05 | 0.05 | 71 | 1006.5 |
| 20260505184847 | 67 | 201 | 4.0 | 10.0 | 0.00 | 0.05 | 0.05 | 72 | 1006.5 |
| 20260505183837 | 67 | 177 | 4.0 | 11.0 | 0.00 | 0.05 | 0.05 | 71 | 1006.6 |
| 20260505182829 | 66 | 184 | 4.0 | 9.0 | 0.00 | 0.05 | 0.05 | 71 | 1006.7 |
| 20260505181908 | 66 | 200 | 7.0 | 15.0 | 0.00 | 0.05 | 0.05 | 70 | 1006.9 |
| 20260505180837 | 67 | 179 | 5.0 | 10.0 | 0.00 | 0.05 | 0.05 | 71 | 1006.9 |
| 20260505175840 | 67 | 161 | 5.0 | 13.0 | 0.00 | 0.05 | 0.05 | 70 | 1007.0 |
| 20260505174822 | 67 | 202 | 4.0 | 18.0 | 0.00 | 0.05 | 0.05 | 70 | 1007.1 |
| 20260505173841 | 67 | 196 | 5.0 | 11.0 | 0.00 | 0.05 | 0.05 | 70 | 1007.0 |
| 20260505172832 | 66 | 200 | 4.0 | 8.0 | 0.00 | 0.05 | 0.05 | 70 | 1007.2 |
| 20260505171825 | 66 | 195 | 4.0 | 11.0 | 0.00 | 0.05 | 0.05 | 70 | 1007.4 |
| 20260505170902 | 66 | 184 | 6.0 | 13.0 | 0.00 | 0.05 | 0.05 | 69 | 1007.5 |
| 20260505165823 | 66 | 190 | 7.0 | 12.0 | 0.00 | 0.05 | 0.05 | 69 | 1007.4 |
| 20260505164826 | 66 | 201 | 4.0 | 9.0 | 0.00 | 0.05 | 0.05 | 70 | 1007.3 |
| 20260505163846 | 66 | 163 | 5.0 | 10.0 | 0.00 | 0.05 | 0.05 | 69 | 1007.3 |
| 20260505162836 | 65 | 200 | 6.0 | 15.0 | 0.00 | 0.05 | 0.05 | 70 | 1007.4 |
| 20260505161832 | 65 | 199 | 6.0 | 17.0 | 0.00 | 0.05 | 0.05 | 69 | 1007.4 |
| 20260505160822 | 65 | 196 | 5.0 | 10.0 | 0.01 | 0.05 | 0.05 | 69 | 1007.4 |
| 20260505152840 | 65 | 165 | 7.0 | 15.0 | 0.01 | 0.05 | 0.05 | 69 | 1007.1 |
| 20260505151831 | 64 | 191 | 4.0 | 13.0 | 0.00 | 0.04 | 0.04 | 71 | 1007.1 |
| 20260505150850 | 64 | 119 | 6.0 | 13.0 | 0.00 | 0.04 | 0.04 | 71 | 1007.0 |